HBCHG LKKV-LKKV

Flight info

Callsign HBCHG
Flight time 0h 2m
Altitude 4000
Route NONE
Aircraft C172/L-SFG/C

Departure

Time 2026-04-19 18:26
Airport Karlovy Vary Airport (LKKV)

Arrival

Time 2026-04-19 18:29
Airport Karlovy Vary Airport (LKKV)
Time Latitude Longitude Altitude Speed Heading
2026-04-19 18:18 50.20197 12.91125 1989 ft 0 kts 204°
2026-04-19 18:24 50.20196 12.91125 1989 ft 2 kts 204°
2026-04-19 18:24 50.20187 12.91108 1989 ft 0 kts 306°
2026-04-19 18:24 50.20217 12.91097 1989 ft 8 kts 30°
2026-04-19 18:24 50.20257 12.91160 1990 ft 16 kts 53°
2026-04-19 18:25 50.20299 12.91197 1993 ft 10 kts 30°
2026-04-19 18:25 50.20379 12.91228 1997 ft 5 kts 336°
2026-04-19 18:25 50.20385 12.91223 1997 ft 0 kts 322°
2026-04-19 18:25 50.20452 12.90983 1995 ft 54 kts 294°
2026-04-19 18:26 50.20630 12.90302 2174 ft 71 kts 291°
2026-04-19 18:26 50.20762 12.89606 2507 ft 69 kts 279°
2026-04-19 18:26 50.21023 12.88938 2789 ft 82 kts 330°
2026-04-19 18:26 50.21593 12.89248 3136 ft 107 kts 40°
2026-04-19 18:27 50.21973 12.90248 3308 ft 107 kts 69°
2026-04-19 18:27 50.21681 12.91409 3351 ft 118 kts 118°
2026-04-19 18:27 50.21493 12.92571 3410 ft 107 kts 88°
2026-04-19 18:27 50.21332 12.93733 3391 ft 120 kts 106°
2026-04-19 18:28 50.20895 12.94923 3204 ft 128 kts 125°
2026-04-19 18:28 50.20148 12.95609 3025 ft 133 kts 203°
2026-04-19 18:28 50.19759 12.94537 2440 ft 115 kts 270°
2026-04-19 18:28 50.19838 12.93584 2205 ft 66 kts 281°
2026-04-19 18:29 50.19921 12.92945 2045 ft 56 kts 284°
2026-04-19 18:29 50.20044 12.92478 1992 ft 40 kts 284°
2026-04-19 18:29 50.20177 12.91973 2070 ft 55 kts 291°
2026-04-19 18:29 50.20301 12.91433 2197 ft 65 kts 287°
2026-04-19 18:30 50.20476 12.90809 2501 ft 62 kts 297°
2026-04-19 18:30 50.20677 12.90202 2812 ft 64 kts 300°
2026-04-19 18:30 50.20898 12.89612 3220 ft 57 kts 301°
2026-04-19 18:30 50.21138 12.88875 3374 ft 81 kts 300°
2026-04-19 18:31 50.21399 12.88085 3523 ft 90 kts 304°
2026-04-19 18:31 50.21913 12.87582 3547 ft 107 kts
2026-04-19 18:31 50.22315 12.88703 3598 ft 123 kts 66°
2026-04-19 18:31 50.22473 12.90041 3689 ft 141 kts 90°
2026-04-19 18:32 50.21860 12.91328 3578 ft 160 kts 146°
2026-04-19 18:32 50.21030 12.92497 3547 ft 156 kts 136°
2026-04-19 18:32 50.20315 12.93504 3415 ft 136 kts 134°
2026-04-19 18:32 50.19889 12.94814 3199 ft 138 kts 104°
2026-04-19 18:33 50.19344 12.95807 3007 ft 119 kts 186°
2026-04-19 18:33 50.19070 12.95097 2757 ft 96 kts 307°
2026-04-19 18:33 50.19515 12.94274 2347 ft 97 kts 300°
2026-04-19 18:33 50.19773 12.93456 2151 ft 71 kts 290°
2026-04-19 18:34 50.19944 12.92840 2005 ft 53 kts 292°
2026-04-19 18:34 50.20063 12.92367 2016 ft 53 kts 288°
2026-04-19 18:34 50.20200 12.91772 2163 ft 70 kts 288°
2026-04-19 18:34 50.20335 12.91122 2512 ft 61 kts 288°
2026-04-19 18:35 50.20411 12.90450 2823 ft 61 kts 289°
2026-04-19 18:35 50.20848 12.90127 2981 ft 91 kts 10°
2026-04-19 18:35 50.20993 12.91215 3119 ft 125 kts 101°
2026-04-19 18:35 50.20746 12.92455 3295 ft 115 kts 97°
2026-04-19 18:36 50.20699 12.93628 3451 ft 105 kts 89°
2026-04-19 18:36 50.20363 12.94576 3486 ft 101 kts 175°
2026-04-19 18:36 50.19824 12.94087 2765 ft 89 kts 255°
2026-04-19 18:36 50.19859 12.93198 2140 ft 76 kts 287°
2026-04-19 18:37 50.20017 12.92578 2000 ft 43 kts 288°
2026-04-19 18:37 50.20110 12.92189 2001 ft 49 kts 291°
2026-04-19 18:37 50.20263 12.91683 2152 ft 49 kts 288°
2026-04-19 18:37 50.20390 12.91193 2328 ft 42 kts 284°
2026-04-19 18:38 50.20427 12.90664 2373 ft 63 kts 274°
2026-04-19 18:38 50.20310 12.89962 2659 ft 65 kts 280°
2026-04-19 18:38 50.20802 12.89864 2777 ft 104 kts 37°
2026-04-19 18:38 50.21016 12.90889 3353 ft 79 kts 67°
2026-04-19 18:39 50.21087 12.91440 3457 ft 92 kts 79°
2026-04-19 18:39 50.20775 12.92519 3164 ft 117 kts 123°
2026-04-19 18:39 50.20281 12.93514 3042 ft 118 kts 133°
2026-04-19 18:39 50.19795 12.94530 2967 ft 115 kts 112°
2026-04-19 18:40 50.19559 12.95714 2875 ft 117 kts 124°
2026-04-19 18:40 50.19021 12.95653 2657 ft 76 kts 290°
2026-04-19 18:40 50.19290 12.95099 2484 ft 55 kts 298°
2026-04-19 18:40 50.19465 12.94536 2313 ft 61 kts 292°
2026-04-19 18:41 50.19634 12.93957 2194 ft 55 kts 290°
2026-04-19 18:41 50.19784 12.93411 2091 ft 57 kts 287°
2026-04-19 18:41 50.19928 12.92873 2012 ft 52 kts 289°
2026-04-19 18:41 50.20046 12.92463 1991 ft 39 kts 283°
2026-04-19 18:42 50.20169 12.91955 2070 ft 63 kts 285°
2026-04-19 18:42 50.20313 12.91264 2269 ft 74 kts 284°